Wichita Jabara, KS

7:42 AM CDT on October 23, 2017 (GMT -0500)
Col Jabara

Weather History for KAAO - December, 2013

Change the Weather History Date:

Monday, December 23, 2013

  Actual Average (KIAB) Record (KIAB)
Temperature  
Mean Temperature 9 °F -  
Max Temperature 17 °F 41 °F 57 °F (2015)
Min Temperature 1 °F 23 °F 8 °F (2004)
Degree Days  
Heating Degree Days 56    
Moisture  
Dew Point 7 °F    
Average Humidity 86    
Maximum Humidity 92    
Minimum Humidity 74    
Precipitation  
Precipitation 0.00 in - - ()
Sea Level Pressure  
Sea Level Pressure 30.53 in    
Wind  
Wind Speed 4 mph (NNE)    
Max Wind Speed 13 mph    
Max Gust Speed -    
Visibility 6 miles    
Events Fog , Snow    
Averages and records for this station are not official NWS values.
T = Trace of Precipitation, MM = Missing Value Source: NWS Daily Summary

Daily Weather History Graph

Daily Weather History Graph

Search for Another Location

Airport or City:

Trip Planner

Search our weather history database for the weather conditions in past years. The results will help you decide how hot, cold, wet, or windy it might be!

Date:

Astronomy

Dec. 23, 2013 Rise Set
Actual Time 7:41 AM CST 5:14 PM CST
Civil Twilight 7:12 AM CST 5:44 PM CST
Nautical Twilight 6:39 AM CST 6:17 PM CST
Astronomical Twilight 6:07 AM CST 6:49 PM CST
Moon 11:19 PM CST 11:13 AM CST
Length of Visible Light 10h 31m
Length of Day
9h 33m
Waning Gibbous, 68% of the Moon is Illuminated
Dec 23
Waning Gibbous
Dec 25
Last Quarter
Jan 1
New
Jan 7
First Quarter
Jan 15
Full

Hourly Weather History & Observations

Time (CST) Temp. Windchill Dew Point Humidity Pressure Visibility Wind Dir Wind Speed Gust Speed Precip Events Conditions
12:03 AM 15.8 °F 8.6 °F 12.2 °F 86% 30.35 in 2.5 mi South 4.6 mph - N/A   Clear
12:10 AM 12.2 °F 6.1 °F 10.4 °F 92% 30.35 in 5.0 mi South 3.5 mph - N/A   Clear
12:54 AM 9.0 °F 2.4 °F 5.0 °F 84% 30.43 in 4.0 mi SSW 3.5 mph - N/A   Clear
1:54 AM 9.0 °F - 7.0 °F 92% 30.44 in 3.0 mi Calm Calm - N/A   Clear
2:36 AM 8.6 °F 2.0 °F 5.0 °F 85% 30.37 in 4.0 mi NE 3.5 mph - N/A   Scattered Clouds
2:38 AM 8.6 °F - 5.0 °F 85% 30.38 in 1.5 mi Calm Calm - N/A   Scattered Clouds
2:41 AM 8.6 °F - 5.0 °F 85% 30.38 in 0.8 mi Calm Calm - N/A   Mist
2:54 AM 8.1 °F - 6.1 °F 92% 30.46 in 0.2 mi Calm Calm - N/A Fog Light Freezing Fog
3:14 AM 3.2 °F -4.2 °F -0.4 °F 85% 30.38 in 2.0 mi NNE 3.5 mph - N/A   Overcast
3:22 AM 1.4 °F -6.2 °F -2.2 °F 85% 30.38 in 5.0 mi NNE 3.5 mph - N/A   Overcast
3:46 AM 3.2 °F - -0.4 °F 85% 30.39 in 5.0 mi Calm Calm - N/A   Overcast
3:54 AM 3.9 °F - 1.0 °F 88% 30.48 in 5.0 mi Calm Calm - N/A   Overcast
4:54 AM 3.9 °F -5.3 °F 1.0 °F 88% 30.50 in 5.0 mi North 4.6 mph - N/A   Scattered Clouds
5:05 AM 3.2 °F - 1.4 °F 92% 30.42 in 5.0 mi North - - N/A   Mostly Cloudy
5:29 AM 3.2 °F -6.2 °F 1.4 °F 92% 30.42 in 4.0 mi North 4.6 mph - N/A   Overcast
5:54 AM 3.9 °F -3.4 °F 1.0 °F 88% 30.52 in 4.0 mi North 3.5 mph - N/A   Overcast
6:23 AM 6.8 °F -3.5 °F 3.2 °F 85% 30.45 in 1.8 mi North 5.8 mph - N/A   Overcast
6:33 AM 6.8 °F -3.5 °F 3.2 °F 85% 30.46 in 3.0 mi North 5.8 mph - N/A   Overcast
6:47 AM 8.6 °F -3.7 °F 6.8 °F 92% 30.48 in 3.0 mi North 8.1 mph - N/A   Overcast
6:54 AM 10.0 °F -1.9 °F 8.1 °F 92% 30.56 in 4.0 mi NNE 8.1 mph - N/A   Overcast
7:54 AM 12.0 °F -1.3 °F 8.1 °F 84% 30.60 in 9.0 mi NE 10.4 mph - N/A   Overcast
8:30 AM 12.2 °F -1.0 °F 8.6 °F 85% 30.51 in 9.0 mi NE 10.4 mph - N/A   Overcast
8:54 AM 12.9 °F 0.7 °F 9.0 °F 84% 30.61 in 6.0 mi NE 9.2 mph - 0.00 in Snow Light Snow
9:47 AM 12.2 °F -2.5 °F 10.4 °F 92% 30.55 in 10.0 mi NE 12.7 mph - 0.00 in   Overcast
9:54 AM 12.9 °F -0.2 °F 10.0 °F 88% 30.65 in 10.0 mi NNE 10.4 mph - 0.00 in   Overcast
10:54 AM 14.0 °F 1.2 °F 10.0 °F 84% 30.68 in 4.0 mi NNE 10.4 mph - N/A   Overcast
11:54 AM 14.0 °F 2.0 °F 10.0 °F 84% 30.67 in 10.0 mi NNE 9.2 mph - N/A   Overcast
12:54 PM 15.1 °F 3.3 °F 9.0 °F 77% 30.65 in 10.0 mi NNE 9.2 mph - N/A   Overcast
1:54 PM 16.0 °F - 10.9 °F 81% 30.63 in 10.0 mi Calm Calm - N/A   Overcast
2:54 PM 16.0 °F 10.4 °F 10.0 °F 77% 30.63 in 10.0 mi NNE 3.5 mph - N/A   Mostly Cloudy
3:54 PM 17.1 °F - 10.0 °F 74% 30.64 in 10.0 mi Calm Calm - N/A   Overcast
4:54 PM 16.0 °F - 10.0 °F 77% 30.64 in 10.0 mi Calm Calm - N/A   Overcast
5:54 PM 16.0 °F - 10.9 °F 81% 30.64 in 10.0 mi Calm Calm - N/A   Overcast
6:54 PM 16.0 °F - 10.9 °F 81% 30.64 in 10.0 mi Calm Calm - N/A   Overcast
7:54 PM 14.0 °F - 10.9 °F 88% 30.64 in 10.0 mi Calm Calm - N/A   Overcast
8:54 PM 12.0 °F - 8.1 °F 84% 30.63 in 10.0 mi Calm Calm - N/A   Overcast
9:35 PM 14.0 °F - 10.4 °F 86% 30.55 in 10.0 mi Calm Calm - N/A   Overcast
9:54 PM 14.0 °F - 10.9 °F 88% 30.64 in 10.0 mi Calm Calm - N/A   Overcast
10:54 PM 14.0 °F - 10.9 °F 88% 30.63 in 10.0 mi North - - N/A   Overcast
11:54 PM 15.1 °F 7.7 °F 10.9 °F 84% 30.60 in 10.0 mi ESE 4.6 mph - N/A   Overcast